CUTE-1.7+APD 2

Satellite information

Favourite Embed

Satellite Type and Status

PAYLOADIN ORBIT

Key statistics

Satellite CUTE-1.7+APD 2 at a glance.

Uptime

6389

Days in orbit

Revolutions

≈ 15.1

Per day

Orbit

SSO

Sun Synchronous Orbit

Inclination

97.8

Latest

Satellite identification and parameters

Extended collection of information and parameters for CUTE-1.7+APD 2.

Object identification

Identified? True

Debris? False

Object name: CUTE-1.7+APD 2

International designator: 2008-021C

Object number (NORAD): 32785

Object ID (CCSDS): 32785

Country: JAPAN (JPN)

Current information (Y/N): Y

RCS size: MEDIUM

Orbital parameters

Period: 95.608 minutes

Inclination: 97.8022 deg

SMA: 6926.128 km

Apoapsis: 555.856 km

Periapsis: 540.13 km

RAAN: 270.4001 deg

Eccentricy: 0.00113528

Argument of periapsis: 104.299 deg

Mean anomaly: 255.9498 deg

Mean motion: 15.06145744 rev/day

Mean motion (dot): 0.00008952 rev/day2

B* drag term: 0.00061499109 1/REarth

Two-line elements (TLE)

Creation date: Oct. 25, 2025, 3:11 a.m.

Reference frame: TEME

Reference center: EARTH

Epoch: Oct. 24, 2025, 10:55 p.m. UTC

TLE line 0: 0 CUTE-1.7+APD 2

TLE line 1: 1 32785U 08021C 25297.95549898 .00008952 00000-0 61499-3 0 9994

TLE line 2: 2 32785 97.8022 270.4001 0011353 104.2990 255.9498 15.06145744949749

Live tracking on map

Real-time ground track for satellite CUTE-1.7+APD 2.

In-orbit conjunctions

There are no conjunctions computed for CUTE-1.7+APD 2, at the moment. Check back to stay up to date, as we update our databases every day.

Go to all conjunctions

Associated space launch

Indian Earth observation satellite. Launched alongside 9 nanosatellites.

CUTE-1.7+APD 2 was lifted into orbit during the mission ‘PSLV | Cartosat 2A’, on board a PSLV space rocket.

The launch took place on April 28, 2008, 3:53 a.m. from Satish Dhawan Space Centre Second Launch Pad.

For more information about the launch, click the button.

Launch to space PSLV | Cartosat 2A
PSLV | Cartosat 2A

Agency: N/A

Status: Launch Successful

Launch date: April 28, 2008, 3:53 a.m. UTC

Rocket: PSLV

Launch pad: Satish Dhawan Space Centre Second Launch Pad

Location: Satish Dhawan Space Centre, India

...

Latest news about this satellite

There are no fresh news available about this satellite. Check back as we update our databases every day.


Newsletter sign-up

Weekly statistics, charts and insights to help you stay on top of the space industry.